Preview of NWS' New Version of Forecast
This preview is not operational and should not be used for support decisions.
Latest weather observations around

Merkel Field Sylacauga Municipal Airport (KSCD)

Using International System of Units (Switch to English Units)
Date/ Time (CST) Wind (kph) Vis. (km) Weather Sky Cond. Temp (°C) Rel. Humidity Wind Chill (°C) Heat Index (°C) Pressure Precip. (cm)
Air Dwpt 6 hour Altimeter (hPa) Sea level (hPa) 1 hr 3 hr 6 hr
Max Min
Jan 21 22:15 Calm 16.09 Clear CLR -1 -4     78%     1028.5        
Jan 21 21:55 Calm 16.09 Clear CLR -1 -4     84%     1028.5        
Jan 21 21:35 Calm 16.09 Clear CLR -1 -3     84%     1028.5        
Jan 21 21:15 Calm 16.09 Clear CLR -1 -2     87%     1028.1        
Jan 21 20:55 Calm 16.09 Clear CLR 0 -4     78%     1028.1        
Jan 21 20:35 Calm 16.09 Clear CLR 0 -4     77%     1028.5        
Jan 21 20:15 Calm 16.09 Clear CLR 1 -5     68%     1028.5        
Jan 21 19:55 Calm 16.09 Partly Cloudy SCT120 0 -3     77%     1028.5        
Jan 21 19:35 Calm 16.09 Partly Cloudy SCT120 1 -4     67%     1028.5        
Jan 21 19:15 E 5 16.09 Partly Cloudy SCT120 1 -5     62% 0   1028.1        
Jan 21 18:55 Calm 16.09 Partly Cloudy SCT120 1 -3     72%     1028.5        
Jan 21 18:35 Calm 16.09 Partly Cloudy SCT120 1 -3     73%     1028.5        
Jan 21 18:15 Calm 16.09 Partly Cloudy SCT120 2 -4     65%     1028.8        
Jan 21 17:55 Calm 16.09 Partly Cloudy SCT120 3 -7     47%     1028.8        
Jan 21 17:35 Calm 16.09 Partly Cloudy SCT110 4 -8     40%     1028.8        
Jan 21 17:15 Calm 16.09 Partly Cloudy SCT120 5 -7     43%     1029.1        
Jan 21 16:55 Calm 16.09 Partly Cloudy SCT120 5 -8     37%     1029.1        
Jan 21 16:35 NNE 5 16.09 Partly Cloudy SCT110 6 -9     35% 5   1028.8        
Jan 21 16:15 N 5 16.09 Partly Cloudy SCT120 6 -8     34% 5   1029.1        
Jan 21 15:55 N 5 16.09 Partly Cloudy SCT120 6 -9     33% 5   1029.1        
Jan 21 15:35 Calm 16.09 Partly Cloudy SCT110 6 -9     32%     1029.1        
Jan 21 15:15 Calm 16.09 Partly Cloudy SCT120 6 -9     33%     1029.1        
Jan 21 14:55 Calm 16.09 Clear CLR 6 -9     33%     1029.1        
Jan 21 14:35 Calm 16.09 Clear CLR 6 -10     33%     1029.1        
Jan 21 14:15 NNE 5 16.09 Clear CLR 6 -9     33% 5   1029.1        
Jan 21 13:55 NE 8 16.09 Clear CLR 5 -9     34% 4   1029.1        
Jan 21 13:35 ENE 11 16.09 Clear CLR 5 -9     34% 3   1029.5        
Jan 21 13:15 ENE 13 16.09 Clear CLR 5 -10     33% 1   1029.8        
Jan 21 12:55 NE 9 16.09 Clear CLR 4 -10     36% 2   1029.8        
Jan 21 12:35 N 9 16.09 Clear CLR 4 -9     38% 1   1030.5        
Jan 21 12:15 NE 8 16.09 Clear CLR 3 -10     39% 1   1030.8        
Jan 21 11:55 NE 13 16.09 Clear CLR 3 -9     39% 0   1031.2        
Jan 21 11:35 ENE 17 16.09 Clear CLR 2 -10     40% -2   1031.2        
Jan 21 11:15 NE 17 16.09 Clear CLR 2 -10     41% -2   1031.5        
Jan 21 10:55 N 11 16.09 Clear CLR 2 -9     45% -1   1032.2        
Jan 21 10:35 NE 15 16.09 Clear CLR 1 -10     45% -4   1031.8        
Jan 21 10:15 NE 15 16.09 Clear CLR 0 -10     48% -4   1031.5        
Jan 21 09:55 NNE 11 16.09 Clear CLR 0 -10     49% -4   1031.8        
Jan 21 09:35 NNE 13 16.09 Clear CLR 0 -9     52% -4   1031.8        
Jan 21 09:15 NNE 13 16.09 Clear CLR -1 -9     54% -5   1031.2        
Jan 21 08:55 NE 18 16.09 Clear CLR -2 -9     57% -7   1031.2        
Jan 21 08:35 NE 15 16.09 Clear CLR -2 -9     61% -7   1031.2        
Jan 21 08:15 NNE 13 16.09 Clear CLR -2 -8     63% -7   1030.8        
Jan 21 07:55 NE 9 16.09 Clear CLR -3 -8     66% -6   1030.5        
Jan 21 07:35 NE 11 16.09 Clear CLR -3 -7     72% -7   1030.1        
Jan 21 07:15 NNE 5 16.09 Clear CLR -3 -7     73% -6   1029.8        
Jan 21 06:55 NNE 8 16.09 Clear CLR -4 -7     77% -7   1029.1        
Jan 21 06:35 NE 9 16.09 Partly Cloudy SCT120 -4 -7     80% -7   1028.5        
Jan 21 06:15 NE 5 16.09 Partly Cloudy SCT120 -3 -6     80% -6   1028.1        
Jan 21 05:55 NNE 8 16.09 Mostly Cloudy BKN120 -3 -6     80% -6   1027.8        
Jan 21 05:35 Calm 16.09 Mostly Cloudy BKN110 -3 -6     79%     1027.8        
Jan 21 05:15 Calm 16.09 Partly Cloudy SCT120 -3 -6     78%     1027.4        
Jan 21 04:55 NNE 5 16.09 Mostly Cloudy BKN120 -3 -6     77% -5   1027.1        
Jan 21 04:35 Calm 16.09 Mostly Cloudy BKN110 -3 -7     77%     1026.8        
Jan 21 04:15 NNE 5 16.09 Mostly Cloudy BKN110 -3 -7     75% -5   1026.8        
Jan 21 03:55 N 5 16.09 Mostly Cloudy BKN110 -3 -7     74% -5   1026.4        
Jan 21 03:35 N 8 16.09 Cloudy OVC110 -3 -6     75% -6   1026.8        
Jan 21 03:15 NNE 8 16.09 Mostly Cloudy SCT095 BKN110 -2 -6     74% -5   1026.4        
Jan 21 02:55 NNE 5 16.09 Mostly Cloudy BKN110 -2 -6     77% -4   1026.4        
Jan 21 02:35 Calm 16.09 Cloudy OVC110 -2 -6     78%     1026.4        
Jan 21 02:15 Calm 16.09 Cloudy OVC110 -2 -6     77%     1026.4        
Jan 21 01:55 Calm 16.09 Cloudy OVC110 -2 -6     76%     1026.4        
Jan 21 01:35 N 5 16.09 Cloudy OVC110 -2 -6     74% -3   1026.1        
Jan 21 01:15 Calm 16.09 Cloudy OVC110 -2 -6     74%     1026.1        
Jan 21 00:55 Calm 16.09 Cloudy OVC110 -2 -5     77%     1026.1        
Jan 21 00:35 NE 5 16.09 Mostly Cloudy BKN110 -2 -5     77% -3   1025.7        
Jan 21 00:15 Calm 16.09 Mostly Cloudy BKN110 -1 -5     74%     1025.7        
Jan 20 23:55 NNE 5 16.09 Mostly Cloudy BKN110 -1 -5     74% -3   1025.7        
Jan 20 23:35 NNE 5 16.09 Mostly Cloudy BKN110 -1 -5     75% -3   1025.7        
Jan 20 23:15 N 8 16.09 Mostly Cloudy BKN110 -1 -5     75% -4   1025.4        
Jan 20 22:55 N 8 16.09 Mostly Cloudy BKN110 -1 -5     75% -3   1025.4        
Jan 20 22:35 NE 5 16.09 Cloudy OVC110 -1 -5     75% -3   1025.1        
Jan 20 22:15 NE 8 16.09 Mostly Cloudy BKN110 -1 -4     77% -3   1025.1        
Jan 20 21:55 Calm 16.09 Mostly Cloudy BKN110 0 -5     73%     1024.7        
Jan 20 21:35 N 5 16.09 Mostly Cloudy BKN110 0 -5     73% -2   1024.7        
Jan 20 21:15 Calm 16.09 Mostly Cloudy BKN110 0 -5     72%     1024.7        
Jan 20 20:55 Calm 16.09 Mostly Cloudy BKN110 0 -5     71%     1025.1        
Jan 20 20:35 Calm 16.09 Mostly Cloudy BKN110 0 -5     71%     1025.1        
Jan 20 20:15 NW 5 16.09 Mostly Cloudy BKN110 0 -5     71% -2   1025.1        
Jan 20 19:55 Calm 16.09 Mostly Cloudy BKN110 0 -5     71%     1024.7        
Jan 20 19:35 NNW 5 16.09 Mostly Cloudy BKN110 0 -5     70% -1   1024.7        
Jan 20 19:15 Calm 16.09 Mostly Cloudy BKN120 1 -5     69%     1024.7        
Jan 20 18:55 Calm 16.09 Mostly Cloudy BKN110 0 -5     70%     1024.4        
Jan 20 18:35 NNW 5 16.09 Mostly Cloudy BKN110 1 -5     69% -1   1024.1        
Jan 20 18:15 NW 5 16.09 Mostly Cloudy BKN110 1 -5     69% -1   1023.7        
Jan 20 17:55 NW 5 16.09 Mostly Cloudy BKN110 1 -4     70% -1   1023.7        
Jan 20 17:35 WNW 8 16.09 Mostly Cloudy BKN110 1 -4     70% -2   1023.7        
Jan 20 17:15 NW 9 16.09 Mostly Cloudy BKN120 1 -4     67% -2   1023.4        
Jan 20 16:55 NW 15 16.09 Mostly Cloudy BKN120 2 -4     67% -2   1023        
Jan 20 16:35 NW 15 16.09 Mostly Cloudy BKN110 2 -4     66% -2   1022.4        
Jan 20 16:15 NW 15 16.09 Cloudy OVC110 2 -4     65% -2   1022.7        
Jan 20 15:55 NW 17 16.09 Cloudy OVC110 2 -4     65% -2   1022.4        
Jan 20 15:35 NW 15 16.09 Cloudy OVC110 3 -4     65% -1   1021.7        
Jan 20 15:15 N 17 16.09 Cloudy SCT030 OVC110 3 -3     65% -1   1021.7        
Jan 20 14:55 NNW 15 16.09 Cloudy BKN030 OVC095 3 -3     68% -1   1021.7        
Jan 20 14:35 NNW 9 16.09 Cloudy BKN030 OVC110 3 -3     65% 1   1021.3        
Jan 20 14:15 NNW 21 16.09 Cloudy OVC028 3 -3     67% -2   1021        
Jan 20 13:55 NW 22 16.09 Cloudy OVC026 2 -3     70% -3   1021        
Jan 20 13:35 NNW 15 16.09 Cloudy OVC026 2 -3     73% -2   1020.7        
Jan 20 13:15 NNW 11 16.09 Cloudy OVC024 2 -2     73% -1   1021        
Jan 20 12:55 WNW 18 16.09 Cloudy OVC024 1 -2     76% -3   1020.7        
Jan 20 12:35 NW 22 16.09 Cloudy OVC026 2 -2     75% -4   1020.7        
Jan 20 12:15 NNW 18 16.09 Cloudy OVC028 2 -2     74% -2   1020.7        
Jan 20 11:55 NNW 15 16.09 Cloudy OVC030 2 -3     70% -2   1021        
Jan 20 11:35 N 9 16.09 Cloudy OVC028 2 -3     69% 0   1021        
Jan 20 11:15 NNW 15 16.09 Cloudy OVC026 2 -3     70% -2   1021.3        
Jan 20 10:55 NNW 15 16.09 Cloudy OVC024 2 -2     75% -3   1021        
Jan 20 10:35 NNW 17 16.09 Cloudy OVC022 1 -2     81% -3   1021        
Jan 20 10:15 WNW 11 16.09 Cloudy OVC022 1 -2     80% -2   1021        
Jan 20 09:55 NW 17 16.09 Cloudy OVC020 1 -2     80% -3   1021        
Jan 20 09:35 NW 22 16.09 Cloudy OVC022 1 -2     82% -4   1020.3        
Jan 20 09:15 NW 13 16.09 Cloudy OVC020 1 -1     83% -2   1019.7        
Jan 20 08:55 NW 15 16.09 Cloudy OVC020 1 -1     84% -3   1019.3        
Jan 20 08:35 NW 15 16.09 Cloudy OVC018 1 -1     85% -3   1019        
Jan 20 08:15 NW 9 16.09 Cloudy OVC018 1 -1     85% -2   1018.3        
Jan 20 07:55 NW 13 16.09 Cloudy OVC018 1 -1     86% -3   1018        
Jan 20 07:35 NNW 15 16.09 Cloudy OVC018 1 -1     86% -3   1017.6        
Jan 20 07:15 NW 15 16.09 Cloudy OVC018 1 -1     85% -3   1017.3        
Jan 20 06:55 NW 24 16.09 Cloudy OVC018 1 -2     85% -5   1017.3        
Jan 20 06:35 NW 18 16.09 Cloudy OVC020 1 -2     84% -4   1016.6        
Jan 20 06:15 NW 24 16.09 Cloudy OVC022 1 -2     80% -5   1016.3        
Jan 20 05:55 NW 22 16.09 Cloudy OVC022 1 -2     80% -4   1015.9        
Jan 20 05:35 NW 18 16.09 Cloudy OVC022 1 -2     80% -4   1015.2        
Jan 20 05:15 NW 21 16.09 Cloudy OVC022 1 -2     80% -4   1014.9        
Jan 20 04:55 NW 24 16.09 Cloudy OVC022 1 -2     80% -5   1014.2        
Jan 20 04:35 NW 22 16.09 Cloudy OVC022 1 -2     80% -4   1013.9        
Jan 20 04:15 NW 22 16.09 Cloudy OVC022 1 -2     82% -4   1013.9        
Jan 20 03:55 NNW 9 16.09 Cloudy OVC020 1 -1     83% -2   1013.6        
Jan 20 03:35 NW 15 16.09 Cloudy OVC020 1 -1     84% -3   1013.6        
Jan 20 03:15 NW 11 16.09 Cloudy OVC022 2 -1     82% -2   1013.2        
Jan 20 02:55 NW 15 16.09 Cloudy OVC024 2 -2     80% -3   1013.2        
Jan 20 02:35 NW 21 16.09 Cloudy OVC026 2 -2     78% -3   1012.9        
Jan 20 02:15 NW 21 16.09 Cloudy OVC026 2 -2     78% -3   1012.5        
Jan 20 01:55 NW 18 16.09 Cloudy OVC024 2 -2     80% -3   1012.2        
Jan 20 01:35 WNW 24 16.09 Cloudy OVC024 2 -2     79% -3   1011.5        
Jan 20 01:15 NW 18 16.09 Cloudy OVC022 2 -1     82% -2   1011.2        
Jan 20 00:55   16.09 Cloudy OVC024 3 0     81%     1010.8        
Jan 20 00:35 WNW 24 16.09 Cloudy OVC024 3 0     80% -2   1010.5        
Jan 20 00:15 NW 26 16.09 Cloudy BKN026 OVC030 4 0     78% -1   1009.8        
Jan 19 23:55   16.09 Cloudy SCT018 OVC030 4 0     76%     1009.8        
Jan 19 23:35 WNW 30 16.09 Cloudy SCT012 BKN016 OVC030 4 2     85% -1   1009.5        
Jan 19 23:15 NW 24 16.09 Cloudy OVC016 5 5     98% 1   1008.8        
Jan 19 22:55 NW 21 16.09 Cloudy OVC014 6 6     95% 3   1008.5        
Jan 19 22:35 NW 22 16.09 Cloudy OVC014 7 7     100% 3   1008.1        
Jan 19 22:15 NW 21 16.09 Cloudy BKN014 OVC020 7 7     97% 4   1007.8        
Jan 19 21:55 WNW 15 16.09 Cloudy OVC015 8 8     100% 5   1007.1        
Jan 19 21:35 NW 18 8.05 Fog/Mist OVC013 8 8     100% 5   1006.8        
Jan 19 21:15 WNW 17 16.09 Cloudy BKN013 BKN018 OVC023 10 10     100% 7   1006.1        
Jan 19 20:55 W 22 16.09 Cloudy SCT017 OVC023 11 10     98%     1005.4        
Jan 19 20:35 WNW 24 16.09 Cloudy BKN017 OVC027 11 11     99%     1005.1        
Jan 19 20:15 WNW 22 16.09 Cloudy SCT021 BKN030 OVC060 12 11     97%     1004.8        
Jan 19 19:55   16.09 Cloudy SCT022 BKN050 OVC060 12 12     96%     1004.4        
Jan 19 19:35 W 28 16.09 Cloudy SCT009 BKN023 OVC060 13 13     99%     1004.1        
Jan 19 19:15 W 21 16.09 Light Rain BKN009 BKN013 OVC020 13 13     100%     1003.4        
Jan 19 18:55 W 8 11.27 Light Rain SCT009 BKN018 OVC023 13 13     100%     1002.7        
Jan 19 18:35 WSW 11 16.09 Cloudy OVC013 13 13     100%     1002.4        
Jan 19 18:15 SW 15 16.09 Cloudy OVC015 13 13     100%     1002.4        
Jan 19 17:55 SW 13 16.09 Cloudy OVC015 13 13     100%     1002       1
Jan 19 17:35 WSW 9 16.09 Cloudy OVC015 14 14     100%     1001.7        
Jan 19 17:15 WSW 11 16.09 Cloudy BKN010 OVC016 14 14     100%     1001.4        
Jan 19 16:55 WSW 9 16.09 Cloudy BKN010 OVC014 14 14     100%     1001.7   0    
Jan 19 16:35 SW 8 16.09 Cloudy BKN010 BKN014 OVC060 14 14     100%     1001   0    
Jan 19 16:15 W 11 16.09 Rain SCT015 BKN043 OVC100 14 14     100%     1001   0    
Jan 19 15:55 SW 8 11.27 Cloudy BKN031 BKN047 OVC100 14 14     100%     1001.7   0    
Jan 19 15:35 Calm 8.05 Heavy Rain SCT017 BKN030 OVC042 14 14     100%     1002   0    
Jan 19 15:15 WSW 13 8.05 Rain SCT009 BKN034 OVC070 14 14     100%     1001.7   0    
Jan 19 14:55 W 15 8.05 Rain SCT009 BKN016 OVC070 15 15     100%     1002   1 1  
Jan 19 14:35 SW 13 6.44 Rain BKN014 BKN021 OVC038 18 18     100%     1001.4   0    
Jan 19 14:15 SSW 21 6.44 Heavy Rain SCT015 BKN025 OVC070 18 18     100%     1001.4   0    
Jan 19 13:55 SSW 24 11.27 Rain SCT017 BKN047 OVC100 18 18     100%     1002.4   0    
Jan 19 13:35 SSW 17 11.27 Rain SCT024 SCT042 OVC100 18 18     100%     1002   0    
Jan 19 13:15 S 21 16.09 Rain SCT016 BKN060 OVC095 18 18     100%     1002.7        
Jan 19 12:55 S 22 4.83 Rain BKN015 BKN022 OVC060 18 18     100%     1003.1   0    
Jan 19 12:35 S 26 8.05 Light Rain BKN017 BKN039 OVC090 18 18     100%     1003.7   0    
Jan 19 12:15 S 24 16.09 Light Rain OVC017 19 19     100%     1004.1        
Jan 19 11:55 S 18 16.09 Cloudy BKN015 BKN021 OVC029 18 18     100%     1005.1       0
Jan 19 11:35 S 18 16.09 Drizzle BKN014 BKN019 OVC027 18 18     100%     1006.1        
Jan 19 11:15 S 22 16.09 Cloudy BKN014 OVC020 18 18     100%     1007.1        
Jan 19 10:55 SSW 22 16.09 Cloudy OVC014 18 18     100%     1007.5   0    
Jan 19 10:35   11.27 Light Rain SCT013 BKN020 OVC075 17 17     100%     1007.8   0    
Jan 19 10:15 S 17 11.27 Light Rain SCT013 BKN027 OVC100 17 17     100%     1008.1   0    
Jan 19 09:55 S 18 8.05 Light Rain OVC010 17 17     100%     1008.5   0    
Jan 19 09:35 S 17 16.09 Cloudy OVC010 17 17     100%     1009.2   0    
Jan 19 09:15 S 18 8.05 Rain BKN010 OVC014 16 16     100%     1009.2   0    
Jan 19 08:55 S 18 16.09 Drizzle BKN010 OVC016 16 16     100%     1009.5   0 0  
Jan 19 08:35 S 17 8.05 Light Rain BKN008 OVC013 16 16     100%     1009.5   0    
Jan 19 08:15 S 15 11.27 Rain OVC006 16 16     100%     1009.8        
Jan 19 07:55 S 17 8.05 Light Drizzle OVC006 15 15     100%     1010.2   0    
Jan 19 07:35 S 11 11.27 Cloudy OVC008 15 15     100%     1010.2        
Jan 19 07:15 S 13 16.09 Cloudy OVC008 15 15     100%     1010.2        
Jan 19 06:55 S 17 11.27 Cloudy OVC006 15 15     100%     1010.5   0    
Notice The following observation data may not be complete
Jan 19 06:35 S 17 16.09 Cloudy OVC006          %     1010.5        
Jan 19 06:15 SSE 9 16.09 Cloudy OVC006 14 14     100%     1010.5        
Jan 19 05:55 SSW 9 11.27 Light Rain OVC006 14 14     100%     1010.8   0   0
Jan 19 05:35 SSE 9 11.27 Rain OVC006 14 14     100%     1010.5   0    
Jan 19 05:15 SSE 11 11.27 Light Rain OVC006 14 14     100%     1010.5   0    
Jan 19 04:55 SSE 17 11.27 Drizzle OVC006 14 14     100%     1010.5   0    
Jan 19 04:35 SSE 13 8.05 Light Rain OVC006 14 14     100%     1010.8   0    
Jan 19 04:15 SSE 15 11.27 Cloudy OVC006 14 14     100%     1011.2        
Jan 19 03:55 SSE 15 16.09 Cloudy OVC006 13 13     100%     1011.9        
Jan 19 03:35 SSE 15 16.09 Cloudy OVC006 13 13     100%     1011.9        
Jan 19 03:15 SE 9 16.09 Cloudy BKN006 BKN029 OVC110 13 13     100%     1012.2        
Jan 19 02:55 ESE 5 16.09 Cloudy OVC006 13 13     100%     1012.9        
Jan 19 02:35 ESE 8 11.27 Cloudy OVC006 13 13     100%     1013.6        
Jan 19 02:15 ESE 8 11.27 Cloudy OVC006 13 13     100%     1014.2        
Notice The following observation data may not be complete
Jan 19 01:55 Calm 8.05 Haze OVC004          %     1014.6        
Notice The following observation data may not be complete
Jan 19 01:40 SE 9 8.05 Haze OVC004          %     1014.9        
Notice The following observation data may not be complete
Jan 19 01:15 SSE 9 8.05 Haze OVC004          %     1015.2        
Notice The following observation data may not be complete
Jan 19 00:55 SSE 8 8.05 Haze OVC004          %     1015.2        
Notice The following observation data may not be complete
Jan 19 00:35 SSE 8 8.05 Haze OVC004          %     1015.2        
Notice The following observation data may not be complete
Jan 19 00:15 SSE 9 8.05 Haze OVC004          %     1015.9        
Notice The following observation data may not be complete
Jan 18 23:55 Calm 8.05 Haze OVC006          %     1016.3        
Notice The following observation data may not be complete
Jan 18 23:35 Calm 8.05 Haze OVC006          %     1016.3        
Notice The following observation data may not be complete
Jan 18 23:15 Calm 8.05 Haze OVC008          %     1015.9        
Notice The following observation data may not be complete
Jan 18 22:55 Calm 4.83 Fog/Mist SCT008 OVC025          %     1015.9        
Notice The following observation data may not be complete
Jan 18 22:35 Calm 4.83 Fog/Mist BKN025 BKN110          %     1016.6        
May 15 02:15 Calm 16.09 Clear CLR 21 19     91%     1014.9        
May 14 12:35 NNW 5 16.09 Mostly Cloudy SCT060 BKN070 31 18     47%   32 1017.3        
May 13 06:15 Calm 16.09 Clear CLR 15 15     100%     1020.3        
May 12 16:15 W 5 16.09 Clear CLR 32 15     36%   31 1019.3        
May 12 14:35 W 13 16.09 Clear CLR 32 15     37%   31 1020        
May 12 12:15 N 9 16.09 Clear CLR 30 15     39%   30 1021.3        
May 12 01:35 Calm 11.27 Clear CLR 16 16     100%     1019.3        
May 11 23:15 Calm 16.09 Clear CLR 18 18     100%     1019.7        
May 11 21:55 Calm 16.09 Clear CLR 19 19     98%     1019.7        
May 11 21:15 Calm 16.09 Clear CLR 21 19     89%     1019.3        
May 11 17:35 WSW 9 16.09 Clear CLR 30 16     41%   30 1018        
May 11 15:35 SW 9 16.09 Clear CLR 31 15     38%   31 1018.6        
Notice The following observation data may not be complete
May 11 12:35   16.09 Clear CLR          %              
Jun 12 04:15 Calm 16.09 Clear CLR 22 22     100%   23 1020.7        
Jun 12 03:55 Calm 16.09 Clear CLR 23 23     100%   24 1020.7        
Jun 11 21:55 Calm 16.09 Clear   26 22     79%   27 1021        
Jun 11 20:55 SSE 8 16.09 Clear   27 23     79%   29 1020        
Jun 11 17:15 S 9 16.09 Partly Cloudy SCT045 32 22     54%   37 1019        
Jun 11 15:15 SE 13 16.09 Partly Cloudy SCT045 32 22     56%   35 1020        
Jun 11 09:55 S 8 16.09 Mostly Cloudy BKN020 BKN085 28 23     74%   32 1021.7        
Jun 11 09:15 SE 11 16.09 Partly Cloudy SCT016 SCT110 27 23     77%   30 1021.7        
Notice The following observation data may not be complete
Jun 11 02:35   16.09 Clear CLR          %              
Jun 11 02:15 Calm 16.09 Clear   19 19     100%     1019        
Jun 11 00:15 Calm 16.09 Clear CLR 20 20     100%     1019.7        
Jun 10 18:35 SSE 5 16.09 Clear   28 18     54%   29 1017.6        
Jun 10 16:35 SE 8 16.09 Clear CLR 31 16     42%   31 1017.6        
Jun 10 13:35 SSE 13 16.09 Partly Cloudy SCT065 SCT075 31 18     47%   31 1019        
Jun 10 12:55 SSE 5 16.09 Mostly Cloudy SCT060 BKN075 31 17     44%   31 1019.3        
Jun 10 11:35 S 8 16.09 Partly Cloudy SCT065 30 16     42%   30 1019.7        
Jun 10 09:15 Calm 16.09 Partly Cloudy SCT080 SCT100 27 20     68%   28 1019.3        
Jun 10 05:15 Calm 16.09 Mostly Cloudy BKN080 BKN095 17 17     100%     1016.9        
Jun 10 03:15 Calm 16.09 Partly Cloudy SCT060 SCT070 18 18     100%     1016.3        
Jun 10 02:35 Calm 16.09 Partly Cloudy SCT060 18 18     100%     1016.3        
Jun 09 20:35 Calm 16.09 Clear CLR 22 20     86%   23 1014.6        
Jun 09 05:35 Calm 16.09 Partly Cloudy SCT060 16 16     100%     1014.2        
Jun 08 18:35 Calm 16.09 Partly Cloudy SCT110 26 17     56%   26 1011.2        
Jun 08 02:15 Calm 16.09 Clear CLR 16 16     100%     1011.5        
Jun 08 01:55 Calm 16.09 Clear CLR 16 16     97%     1011.5        
Jun 07 17:35 NNE 8 16.09 Clear CLR 28 16     49%   28 1009.8        
Jun 07 11:35 NE 13 16.09 Clear   26 20     69%   28 1009.8        
Jun 07 09:35 NE 11 16.09 Clear CLR 23 18     72%   24 1009.8        
Jun 06 10:55 Calm 16.09 Light Drizzle SCT005 BKN049 OVC055 22 22     100%   23 1009.8   0    
Notice The following observation data may not be complete
Jun 06 05:55   16.09 Cloudy OVC005          %              
Jun 06 04:55 Calm 16.09 Cloudy BKN005 BKN055 OVC070 22 22     100%   23 1009.2        
Jun 06 03:35 Calm 16.09 Light Rain SCT037 SCT048 SCT070 22 22     100%   23 1009.2        
Jun 06 01:55 Calm 16.09 Cloudy SCT035 BKN042 OVC065 22 22     100%   23 1009.5        
Jun 05 15:55 ENE 8 11.27 Rain SCT005 BKN048 OVC100 23 23     100%   25 1009.5   0 1